Wind_Speed
9 7 6 6 5 5 5 6 5 5 5 5 5 6 6 7 7 7 6 5 4 4 3 3 3 3 4 4 5 6 7 7 8 9 9 9 9 11 12 12 12 12 12 13 12 12 12 12 12
10 9 8 7 6 7 6 6 5 5 6 6 6 6 6 7 7 7 6 5 4 4 4 4 4 4 4 5 5 6 7 8 8 9 9 10 10 11 12 12 12 12 12 12 12 12 12 13 12
12 10 9 8 8 8 7 6 5 6 6 6 6 6 6 7 8 7 7 6 5 5 4 4 5 5 5 5 6 6 7 8 9 9 10 10 10 11 11 12 12 12 12 12 12 12 13 13 13
13 11 10 10 10 8 7 6 6 6 6 6 6 5 5 7 7 7 7 7 6 5 5 4 4 4 5 5 6 7 7 8 9 10 11 11 11 11 11 11 11 12 12 12 12 12 12 13 13
14 13 11 10 10 9 7 7 6 6 7 6 6 5 5 6 7 7 6 6 6 5 4 3 4 4 5 5 5 6 8 9 9 10 10 10 11 11 12 12 11 11 11 11 12 13 13 13 13
15 14 12 12 11 10 9 8 8 7 7 6 6 6 6 6 6 6 6 5 5 4 4 4 4 5 5 5 5 6 7 8 9 10 10 11 11 12 12 12 12 12 11 12 12 13 14 14 14
17 15 14 14 12 11 10 9 8 7 7 7 7 7 6 7 6 5 5 5 4 4 4 4 4 5 5 5 6 7 7 8 9 10 10 11 12 12 12 12 11 11 12 12 13 13 14 15 15
18 17 16 15 13 12 11 10 9 8 7 7 7 7 7 7 6 6 5 5 4 4 3 3 4 4 4 5 6 7 8 9 9 10 11 12 12 13 13 12 12 12 12 12 13 13 14 15 15
19 18 17 17 15 13 12 10 9 9 8 7 7 7 7 7 6 6 6 5 4 4 4 3 3 3 4 5 7 7 8 9 10 11 12 13 13 13 13 12 13 13 13 13 13 14 14 15 15
19 19 19 18 15 14 12 11 10 9 9 8 7 7 8 7 7 6 6 5 4 4 3 3 3 4 5 6 7 8 9 10 11 12 12 13 14 14 14 13 13 13 13 14 14 14 14 14 15
20 19 19 16 15 14 13 12 11 10 9 8 7 7 6 6 6 6 5 5 4 4 3 3 3 4 5 6 7 8 9 10 11 12 13 14 14 14 14 14 14 14 14 14 14 14 14 14 14
19 19 18 16 16 15 13 12 11 10 9 8 6 7 6 7 7 6 5 5 4 3 2 3 4 4 5 6 7 8 9 11 12 13 14 14 14 14 14 14 14 14 14 15 15 14 14 14 15
18 18 18 16 16 15 14 13 12 10 10 9 7 7 7 6 6 5 5 4 4 3 3 3 4 4 5 6 8 9 10 11 12 14 15 14 14 14 14 15 15 15 15 15 14 14 15 15 15
17 18 17 16 15 13 13 13 12 11 10 9 9 8 7 6 6 5 5 4 3 3 3 3 4 5 6 7 8 10 11 12 13 14 15 15 15 15 15 16 16 16 16 15 15 15 15 14 15
16 16 15 14 13 12 12 11 11 10 10 10 9 8 8 7 5 5 4 4 3 3 3 4 4 5 6 7 9 10 11 13 13 14 14 15 16 16 16 17 17 16 16 16 15 15 15 14 14
15 15 13 13 12 12 11 11 10 10 10 9 8 8 8 7 6 5 4 4 3 3 3 4 4 5 6 8 9 10 12 13 14 14 15 16 16 17 17 17 17 17 16 16 15 14 14 13 13
13 13 12 11 10 9 10 9 10 9 8 8 8 8 8 7 6 6 5 4 3 3 3 4 5 6 7 8 9 11 12 13 14 14 15 16 17 17 17 17 17 17 16 16 14 14 13 12 12
12 11 10 9 9 7 7 8 8 8 8 7 6 7 7 8 7 6 5 4 4 4 4 5 5 6 7 8 9 11 12 13 14 14 15 16 17 18 18 18 17 17 16 15 14 13 12 11 10
12 11 10 9 8 6 5 6 6 6 6 7 6 6 7 7 7 6 5 5 4 4 5 5 6 7 8 8 10 11 12 13 14 14 15 17 17 18 18 18 17 17 17 16 14 13 12 11 10
11 11 10 9 7 6 5 4 5 5 6 6 6 6 6 6 6 5 5 5 5 5 5 6 7 7 8 9 10 11 12 13 13 14 15 16 17 18 18 18 17 17 17 16 15 14 12 10 9
11 10 9 10 8 7 6 5 4 4 5 5 6 6 6 5 5 5 4 4 4 5 6 7 7 8 8 9 10 11 12 13 13 14 15 16 17 18 18 18 17 17 17 16 15 14 12 10 9
11 10 9 9 9 8 6 5 4 3 4 5 5 6 6 5 5 5 4 4 4 5 6 6 7 8 8 9 9 11 12 12 13 14 15 16 17 18 17 17 17 17 17 17 15 13 12 10 9
11 11 10 10 8 7 5 5 5 3 3 3 4 5 5 5 5 5 4 4 4 5 5 6 7 7 8 9 9 11 12 13 13 14 15 15 17 17 17 17 17 16 16 16 15 13 12 10 9
13 12 11 9 8 8 7 5 4 2 2 3 4 4 4 4 5 5 4 3 3 4 5 6 7 7 8 9 9 11 12 13 13 14 15 15 16 17 17 17 16 16 16 16 15 13 12 10 9
14 12 11 9 7 8 7 4 5 4 4 4 4 4 4 4 4 4 3 3 3 4 5 6 7 8 8 9 10 11 12 13 13 14 15 15 16 16 17 17 16 16 15 15 14 13 12 10 9
12 10 10 9 7 7 7 5 5 5 5 4 4 4 3 4 3 3 3 3 4 5 6 7 8 9 9 10 10 11 12 13 13 14 15 15 16 16 16 16 16 15 15 14 14 14 13 11 10
11 8 9 9 7 5 5 5 4 4 5 4 4 4 4 3 3 3 3 4 5 6 7 8 9 9 10 10 11 12 12 13 14 14 15 15 16 16 16 16 15 15 15 14 14 14 13 12 11
11 13 11 10 8 7 4 4 3 4 4 4 4 4 3 3 3 3 4 5 5 6 7 8 9 10 10 11 12 12 13 14 14 14 15 15 15 16 16 16 15 15 15 14 14 14 13 13 12
12 11 10 8 7 6 7 5 5 4 3 3 3 4 4 4 4 4 5 6 6 7 8 9 10 11 11 12 12 13 14 14 15 15 15 16 16 15 16 16 15 15 15 15 14 14 14 13 12
10 11 10 8 7 7 5 6 5 5 4 4 3 3 4 4 5 5 6 6 7 8 8 9 10 11 12 12 13 13 14 14 15 15 15 16 16 16 15 15 15 15 15 15 15 14 14 13 13
Wind_Direction
265 270 281 279 278 283 281 276 275 285 273 266 263 259 253 249 236 234 234 230 232 236 245 256 266 277 285 290 298 305 307 306 304 303 303 298 298 297 296 293 291 290 282 273 268 266 263 262 260
257 261 266 267 266 268 268 274 272 279 274 269 263 259 251 246 239 233 232 228 230 230 241 258 271 284 293 297 305 309 309 309 309 307 308 305 302 301 298 295 294 292 287 280 270 267 266 263 261
252 253 258 263 264 261 262 267 276 276 273 270 261 256 251 245 241 238 233 230 230 229 244 263 278 289 296 301 307 310 314 316 316 314 314 313 308 304 302 298 294 292 287 284 280 273 270 264 263
244 246 253 255 255 263 263 273 267 271 267 267 262 256 248 241 240 243 240 232 233 240 256 263 280 295 300 300 304 311 315 318 318 317 317 316 314 311 309 304 300 295 289 284 283 278 276 268 264
238 242 248 251 252 258 273 281 273 274 272 267 259 251 238 234 236 237 232 231 242 248 256 265 285 302 306 306 311 314 320 321 322 324 325 323 319 316 313 310 305 299 292 286 282 281 278 274 272
236 237 241 244 244 257 265 273 272 270 267 261 256 249 235 235 229 221 228 233 236 243 252 262 287 302 306 313 320 324 328 330 330 331 330 327 324 321 318 314 308 303 296 289 286 282 279 276 274
235 236 238 239 239 251 256 260 267 268 267 259 252 248 237 234 229 228 232 238 241 246 258 280 295 304 308 321 329 333 335 336 333 333 331 329 326 323 320 315 312 306 301 295 288 283 279 277 274
234 234 236 238 239 243 246 254 256 257 262 259 253 244 238 239 231 233 238 243 247 249 257 280 297 306 315 330 336 336 337 336 334 333 331 329 327 325 321 317 312 307 304 299 292 287 282 279 275
233 232 234 235 236 238 240 251 255 257 259 256 251 245 240 238 236 237 239 241 246 250 265 288 296 310 327 331 335 337 336 336 335 333 331 331 330 327 323 318 314 309 306 301 296 290 286 281 276
230 230 232 232 233 237 238 244 251 256 252 247 244 241 239 235 239 241 238 235 243 254 270 290 307 317 322 327 333 336 337 337 336 333 331 330 329 326 324 320 317 312 307 303 298 292 287 282 277
227 229 232 233 238 241 241 241 246 253 249 245 237 239 236 230 235 240 234 233 244 254 270 292 317 324 326 330 336 338 338 339 338 336 334 331 329 327 323 319 317 314 309 305 300 294 288 282 277
230 231 234 236 238 244 246 245 246 244 245 243 239 238 233 234 237 234 232 232 241 250 262 301 318 331 333 334 337 338 338 339 339 339 337 335 332 329 326 322 320 317 314 308 303 296 289 283 277
226 228 232 234 239 243 242 244 245 242 241 238 238 237 237 236 235 231 233 228 231 244 281 311 331 333 335 336 334 335 336 340 341 341 339 338 337 334 330 327 324 320 317 312 307 300 294 287 280
220 222 226 230 235 238 240 244 246 245 240 237 238 237 240 240 239 229 223 217 228 256 287 305 320 330 334 336 337 338 339 340 343 343 343 341 340 338 335 331 327 323 319 315 309 302 296 289 283
218 222 224 225 226 232 236 240 239 239 236 237 238 235 236 239 234 229 224 220 240 271 294 308 317 330 337 338 340 342 344 342 341 342 343 342 342 340 337 333 329 326 322 318 312 306 299 292 284
215 219 220 222 223 226 231 233 231 230 229 232 232 229 232 228 229 225 223 230 251 273 298 311 320 330 337 341 344 346 344 344 342 341 341 342 342 341 339 336 333 329 325 323 318 312 304 295 287
205 208 213 215 219 220 224 228 228 229 226 232 234 229 226 222 222 223 227 236 253 277 296 310 319 329 335 339 343 346 345 345 343 342 342 342 343 342 340 338 336 333 329 327 323 317 310 300 290
197 201 202 206 208 215 221 229 231 229 229 227 223 216 216 215 215 217 223 238 256 279 293 303 318 329 334 336 341 344 345 344 344 345 344 343 343 343 342 340 339 338 335 332 329 324 317 306 295
194 197 195 199 194 208 223 228 226 219 218 215 208 205 212 212 211 221 230 240 255 278 295 307 317 324 329 333 337 340 342 342 344 345 345 344 344 343 343 343 343 343 341 337 332 328 322 313 302
190 194 197 194 189 198 203 200 202 198 204 207 206 208 206 202 205 225 240 244 258 277 293 307 312 319 325 329 333 337 339 341 342 344 344 344 344 344 344 345 344 344 343 342 338 334 328 318 308
186 191 184 178 174 182 174 178 181 187 197 201 206 207 212 211 213 222 240 255 261 277 294 307 310 317 320 324 330 335 336 338 340 342 342 343 344 345 345 345 345 345 346 346 343 339 335 327 317
177 179 171 158 151 157 170 161 160 178 193 205 206 206 213 222 228 228 242 259 268 282 296 307 311 315 317 321 328 332 335 336 337 339 340 342 344 345 345 345 345 345 345 346 346 342 339 333 325
168 163 153 146 151 152 161 155 150 170 178 189 197 202 208 214 220 224 242 255 271 288 301 311 316 319 320 321 328 333 334 334 335 337 339 341 344 345 346 346 346 347 347 346 347 346 343 338 331
152 148 142 146 152 157 167 170 158 182 208 202 196 199 207 213 220 228 237 255 276 294 309 320 323 324 323 323 327 331 333 334 335 337 338 340 343 345 346 346 347 348 350 350 350 348 346 344 339
152 153 147 147 150 155 166 185 191 218 235 224 215 214 217 218 225 234 238 257 277 292 307 316 322 322 321 322 325 328 330 331 333 335 337 339 342 344 346 347 348 349 350 352 353 352 350 345 341
160 157 151 148 157 164 177 204 216 229 238 233 227 229 229 224 228 236 248 266 281 292 302 310 317 318 318 319 320 322 325 328 331 332 335 337 339 342 345 346 347 349 350 351 352 352 350 346 341
152 145 135 132 147 170 187 220 219 227 230 228 222 225 229 231 236 247 264 277 287 294 302 307 312 315 315 316 317 318 320 323 326 329 332 335 338 340 342 344 345 347 348 348 348 349 348 344 338
149 148 144 145 160 173 194 238 245 224 227 230 231 232 232 237 250 266 278 289 293 298 304 308 312 313 314 314 315 316 317 318 321 324 328 330 333 336 339 342 343 344 344 344 344 345 344 342 338
155 155 158 150 159 182 195 210 253 258 257 246 240 239 239 246 256 272 285 294 296 302 309 310 313 314 314 313 314 315 316 318 319 321 323 326 329 332 335 337 339 341 341 340 340 340 341 339 336
165 168 167 169 176 192 211 224 243 258 257 257 257 260 263 264 267 275 286 295 299 303 307 309 311 313 314 314 314 314 314 315 317 318 320 322 324 326 329 332 334 335 336 336 336 336 336 335 333
Height
5858 5859 5859 5860 5860 5860 5860 5860 5860 5860 5861 5861 5861 5862 5862 5863 5865 5867 5866 5865 5866 5867 5868 5868 5868 5869 5869 5869 5868 5868 5868 5867 5867 5867 5866 5866 5866 5865 5865 5864 5864 5864 5864 5864 5864 5864 5864 5865 5865
5857 5858 5859 5859 5859 5859 5859 5859 5859 5860 5860 5860 5860 5861 5861 5862 5863 5864 5864 5865 5866 5867 5867 5868 5868 5868 5868 5868 5868 5868 5867 5866 5866 5865 5865 5864 5864 5863 5863 5862 5862 5862 5862 5862 5862 5862 5862 5862 5863
5855 5856 5858 5858 5858 5858 5858 5858 5858 5858 5858 5859 5860 5860 5861 5861 5862 5863 5863 5864 5865 5866 5867 5867 5867 5867 5867 5867 5867 5867 5866 5865 5865 5864 5863 5863 5862 5862 5861 5860 5860 5860 5859 5859 5859 5860 5860 5860 5861
5853 5855 5857 5857 5856 5856 5856 5857 5857 5857 5858 5858 5859 5860 5860 5860 5861 5862 5863 5864 5865 5866 5866 5866 5866 5866 5866 5866 5866 5866 5865 5864 5864 5863 5862 5861 5861 5860 5859 5858 5858 5857 5857 5857 5857 5857 5858 5858 5858
5851 5853 5854 5855 5854 5854 5855 5856 5856 5856 5857 5857 5858 5858 5859 5859 5860 5861 5862 5863 5864 5865 5865 5866 5866 5866 5866 5865 5865 5865 5864 5863 5863 5862 5861 5860 5859 5858 5857 5856 5856 5855 5855 5855 5855 5855 5855 5855 5856
5849 5850 5852 5853 5853 5852 5854 5854 5855 5855 5856 5856 5857 5858 5858 5858 5859 5860 5861 5862 5863 5864 5865 5865 5865 5865 5865 5865 5864 5864 5863 5862 5862 5861 5860 5859 5858 5857 5856 5855 5854 5853 5853 5853 5852 5852 5852 5853 5853
5846 5848 5850 5850 5851 5851 5852 5853 5854 5854 5855 5855 5856 5857 5857 5858 5859 5860 5861 5862 5863 5863 5864 5864 5864 5864 5864 5864 5864 5863 5863 5862 5861 5860 5859 5857 5856 5855 5854 5853 5852 5851 5851 5850 5850 5850 5850 5850 5850
5843 5846 5847 5848 5848 5850 5851 5851 5852 5853 5854 5854 5855 5856 5857 5857 5858 5860 5860 5861 5862 5863 5863 5864 5864 5864 5863 5863 5863 5863 5862 5861 5860 5859 5858 5856 5855 5853 5852 5851 5850 5849 5848 5847 5847 5847 5846 5846 5847
5839 5843 5844 5845 5845 5847 5849 5850 5851 5852 5853 5853 5854 5855 5856 5857 5858 5859 5860 5861 5861 5862 5863 5863 5863 5863 5863 5863 5862 5862 5861 5860 5859 5858 5856 5855 5853 5852 5850 5849 5848 5846 5845 5845 5844 5843 5843 5843 5843
5836 5839 5840 5840 5842 5845 5846 5848 5850 5851 5851 5852 5853 5854 5855 5856 5857 5858 5859 5860 5861 5861 5862 5862 5862 5863 5863 5862 5862 5861 5860 5859 5858 5857 5855 5853 5852 5850 5849 5847 5845 5844 5843 5842 5841 5840 5840 5840 5840
5833 5835 5836 5837 5841 5843 5845 5846 5848 5849 5850 5851 5852 5853 5854 5855 5856 5857 5858 5859 5860 5860 5861 5861 5862 5862 5862 5861 5861 5860 5859 5858 5857 5855 5854 5852 5850 5848 5847 5845 5844 5842 5840 5839 5838 5837 5836 5836 5836
5830 5833 5835 5837 5839 5841 5843 5844 5846 5847 5849 5849 5851 5852 5853 5854 5855 5856 5857 5858 5859 5860 5861 5861 5861 5861 5861 5860 5860 5859 5858 5857 5856 5854 5852 5850 5848 5846 5845 5843 5841 5839 5838 5836 5835 5834 5833 5833 5833
5827 5830 5833 5835 5837 5839 5841 5843 5844 5846 5848 5849 5850 5851 5852 5853 5854 5855 5856 5858 5859 5860 5860 5860 5860 5860 5860 5860 5859 5858 5857 5856 5854 5853 5851 5849 5847 5845 5843 5841 5839 5837 5835 5833 5832 5830 5829 5829 5829
5825 5828 5830 5833 5835 5837 5839 5841 5843 5845 5846 5848 5849 5850 5851 5853 5854 5855 5856 5857 5858 5859 5860 5860 5860 5860 5859 5859 5858 5858 5856 5855 5853 5851 5849 5847 5845 5843 5840 5838 5836 5834 5832 5830 5828 5827 5826 5825 5825
5823 5826 5829 5831 5833 5835 5838 5840 5842 5843 5845 5846 5848 5849 5851 5852 5853 5854 5855 5856 5858 5858 5859 5859 5859 5859 5859 5858 5858 5857 5855 5854 5852 5850 5848 5846 5843 5841 5839 5836 5834 5831 5829 5827 5825 5823 5822 5822 5821
5822 5824 5827 5830 5832 5834 5838 5839 5840 5842 5843 5845 5846 5848 5849 5851 5852 5854 5855 5856 5857 5858 5858 5859 5859 5859 5858 5858 5857 5856 5854 5853 5851 5849 5847 5845 5842 5839 5837 5834 5831 5829 5826 5824 5822 5820 5819 5818 5818
5820 5823 5826 5829 5831 5833 5836 5837 5839 5840 5842 5844 5845 5846 5848 5850 5851 5853 5854 5855 5856 5857 5858 5858 5858 5858 5858 5857 5856 5855 5853 5852 5850 5848 5846 5843 5841 5838 5835 5832 5829 5826 5824 5821 5819 5817 5816 5815 5814
5820 5822 5825 5828 5830 5832 5834 5836 5837 5839 5841 5842 5844 5845 5847 5849 5851 5852 5853 5854 5855 5856 5857 5857 5857 5857 5857 5856 5855 5854 5852 5851 5849 5847 5845 5842 5839 5836 5833 5830 5827 5824 5822 5819 5817 5814 5813 5812 5811
5819 5822 5824 5827 5830 5832 5833 5835 5837 5838 5840 5842 5843 5844 5846 5848 5850 5851 5852 5853 5855 5855 5856 5856 5856 5856 5856 5855 5854 5853 5851 5850 5848 5846 5844 5841 5838 5835 5832 5829 5826 5823 5820 5817 5814 5812 5810 5809 5809
5819 5822 5824 5827 5829 5832 5833 5835 5836 5837 5839 5841 5843 5844 5845 5847 5849 5850 5851 5852 5854 5854 5855 5855 5855 5855 5855 5854 5853 5852 5850 5849 5847 5845 5843 5840 5837 5834 5831 5828 5824 5821 5818 5815 5812 5810 5808 5807 5806
5819 5822 5824 5827 5829 5831 5833 5835 5836 5838 5839 5840 5842 5844 5845 5847 5848 5850 5851 5852 5853 5854 5854 5854 5854 5854 5853 5853 5852 5851 5849 5848 5846 5844 5841 5839 5836 5833 5829 5826 5823 5820 5817 5814 5811 5808 5806 5805 5805
5820 5822 5825 5827 5830 5832 5834 5835 5836 5837 5839 5840 5842 5843 5845 5846 5848 5849 5850 5851 5852 5852 5853 5853 5852 5852 5852 5851 5850 5849 5848 5846 5845 5843 5840 5838 5835 5832 5828 5825 5822 5819 5816 5813 5810 5807 5805 5804 5803
5821 5823 5826 5828 5830 5832 5834 5835 5837 5837 5839 5840 5841 5843 5844 5846 5847 5848 5849 5850 5851 5851 5851 5851 5851 5851 5850 5850 5849 5848 5847 5845 5843 5841 5839 5837 5834 5831 5828 5825 5821 5818 5815 5812 5810 5807 5805 5804 5803
5822 5824 5827 5829 5830 5833 5835 5836 5837 5838 5839 5840 5842 5843 5844 5845 5846 5847 5848 5849 5850 5850 5850 5850 5850 5849 5849 5848 5847 5846 5845 5844 5842 5840 5838 5836 5833 5830 5827 5824 5821 5818 5815 5812 5809 5807 5805 5803 5802
5822 5825 5828 5829 5831 5833 5836 5837 5838 5838 5839 5840 5841 5843 5844 5845 5846 5847 5848 5848 5849 5849 5849 5849 5849 5848 5847 5847 5846 5845 5843 5842 5840 5839 5837 5834 5832 5829 5826 5823 5820 5817 5815 5812 5809 5807 5805 5803 5802
5822 5825 5829 5831 5833 5834 5836 5837 5838 5838 5839 5840 5841 5842 5843 5844 5845 5846 5847 5847 5848 5848 5848 5848 5847 5847 5846 5845 5844 5843 5842 5840 5839 5837 5835 5833 5831 5828 5825 5823 5820 5817 5814 5812 5809 5807 5805 5803 5802
5824 5826 5829 5831 5834 5835 5837 5837 5838 5839 5839 5840 5840 5841 5842 5843 5844 5845 5845 5846 5846 5846 5846 5846 5845 5845 5844 5843 5842 5841 5840 5838 5837 5835 5833 5832 5829 5827 5824 5822 5819 5817 5814 5811 5809 5807 5805 5803 5801
5825 5827 5830 5832 5834 5836 5837 5837 5838 5839 5839 5839 5840 5841 5842 5842 5843 5844 5844 5844 5845 5845 5844 5844 5843 5843 5842 5841 5840 5839 5838 5836 5835 5833 5832 5830 5828 5825 5823 5821 5818 5816 5813 5811 5809 5807 5804 5802 5801
5827 5830 5831 5832 5834 5836 5836 5839 5838 5838 5839 5839 5840 5840 5841 5842 5842 5843 5843 5843 5843 5843 5843 5842 5841 5841 5840 5839 5838 5837 5836 5834 5833 5831 5830 5828 5826 5824 5822 5819 5817 5815 5813 5810 5808 5806 5804 5802 5800
5828 5829 5831 5833 5835 5835 5836 5840 5837 5838 5838 5839 5839 5840 5840 5841 5841 5842 5842 5842 5841 5841 5841 5840 5839 5839 5838 5837 5835 5834 5833 5832 5830 5829 5827 5826 5824 5822 5820 5818 5816 5814 5811 5809 5807 5805 5803 5801 5799